DW7764 Weather Reports


time (UTC)temp
F
wind
direction
speed
knots
gust
knots
rain 1hr
in
rain 24hr
in
rain mn
in
humidity
%
barometer
mb
20260507201551 55 131 0.0 0.0 0.00 0.00 0.00 90 1019.1
20260507200103 56 131 0.0 0.0 0.00 0.00 0.00 89 1018.9
20260507194550 56 131 0.0 0.0 0.00 0.00 0.00 88 1018.7
20260507193109 57 131 0.0 0.0 0.00 0.00 0.00 86 1018.4
20260507191556 58 131 0.0 0.0 0.00 0.00 0.00 84 1018.2
20260507190049 59 131 0.0 2.6 0.00 0.00 0.00 81 1018.0
20260507184547 60 119 0.9 2.6 0.00 0.00 0.00 80 1017.7
20260507183057 60 176 0.0 1.7 0.00 0.00 0.00 81 1017.7
20260507181547 60 121 0.9 6.1 0.00 0.00 0.00 79 1017.5
20260507180046 61 121 2.6 6.1 0.00 0.00 0.00 79 1017.4
20260507174545 62 135 1.7 5.2 0.00 0.00 0.00 78 1017.3
20260507173107 62 148 1.7 6.1 0.00 0.00 0.00 75 1017.2
20260507171547 63 205 1.7 7.0 0.00 0.00 0.00 74 1017.1
20260507170048 63 109 2.6 6.1 0.00 0.00 0.00 73 1017.0
20260507164550 63 145 0.9 5.2 0.00 0.00 0.00 71 1017.0
20260507163042 63 217 0.9 5.2 0.00 0.00 0.00 71 1016.9
20260507161547 63 129 2.6 7.0 0.00 0.00 0.00 72 1016.8
20260507160059 63 83 3.5 7.0 0.00 0.00 0.00 71 1016.8
20260507154540 64 167 3.5 9.6 0.00 0.00 0.00 70 1017.0
20260507153039 65 174 2.6 8.7 0.00 0.00 0.00 67 1017.0
20260507151539 65 137 2.6 7.0 0.00 0.00 0.00 66 1016.9
20260507150038 65 158 2.6 7.8 0.00 0.00 0.00 65 1016.9
20260507144545 65 164 1.7 10.4 0.00 0.00 0.00 64 1017.1
20260507143035 65 103 1.7 7.8 0.00 0.00 0.00 66 1017.2
20260507141534 65 128 4.3 7.8 0.00 0.00 0.00 64 1017.3
20260507140035 65 120 2.6 9.6 0.00 0.00 0.00 66 1017.5
20260507134531 65 68 3.5 10.4 0.00 0.00 0.00 65 1017.8
20260507133030 66 88 2.6 13.9 0.00 0.00 0.00 66 1017.8
20260507131531 66 178 3.5 8.7 0.00 0.00 0.00 67 1017.9
20260507130033 66 105 2.6 7.8 0.00 0.00 0.00 68 1017.9
20260507124526 65 128 3.5 12.2 0.00 0.00 0.00 68 1018.2
20260507123032 66 94 3.5 10.4 0.00 0.00 0.00 68 1018.2
20260507121523 66 115 4.3 9.6 0.00 0.00 0.00 68 1018.3
20260507120023 66 232 3.5 11.3 0.00 0.00 0.00 69 1018.3
20260507114521 66 150 2.6 13.0 0.00 0.00 0.00 68 1018.4
20260507113026 65 132 2.6 8.7 0.00 0.00 0.00 70 1018.4
20260507111516 65 81 1.7 10.4 0.00 0.00 0.00 74 1018.5
20260507110014 64 148 3.5 9.6 0.00 0.00 0.00 78 1018.8
20260507104511 62 105 0.0 9.6 0.00 0.00 0.00 94 1018.8
20260507103010 62 106 2.6 7.8 0.00 0.00 0.00 94 1019.0
20260507101515 62 155 1.7 7.8 0.00 0.00 0.00 96 1019.0
20260507100008 62 89 1.7 8.7 0.00 0.00 0.00 97 1019.1
20260507094507 61 108 0.9 7.8 0.00 0.00 0.00 96 1019.2
20260507093009 61 93 3.5 8.7 0.00 0.00 0.00 96 1019.5
20260507091505 60 148 2.6 5.2 0.00 0.00 0.00 96 1019.4
20260507090004 60 133 1.7 4.3 0.00 0.00 0.00 98 1019.1
20260507084601 59 146 0.0 1.7 0.00 0.00 0.00 98 1019.2
20260507083059 59 123 0.9 3.5 0.00 0.00 0.00 99 1019.2
20260507081555 58 293 0.0 0.9 0.00 0.00 0.00 99 1019.4
20260507080052 57 293 0.0 1.7 0.00 0.00 0.00 99 1019.5
20260507074555 55 294 0.0 0.9 0.00 0.00 0.00 100 1019.7
20260507073047 54 294 0.0 0.0 0.00 0.00 0.00 100 1019.7
20260507071544 54 293 0.0 0.0 0.00 0.00 0.00 99 1019.6
20260507070047 53 294 0.0 0.0 0.00 0.00 0.00 99 1019.5
20260507064542 52 295 0.0 0.0 0.00 0.00 0.00 100 1019.3
20260507063037 51 294 0.0 0.0 0.00 0.00 0.00 99 1019.1
20260507061534 50 294 0.9 1.7 0.00 0.00 0.00 99 1019.1
20260507060035 48 293 0.0 0.0 0.00 0.00 0.00 99 1018.9
20260507054534 47 294 0.0 0.0 0.00 0.00 0.00 99 1018.8
20260507053032 47 295 0.0 0.0 0.00 0.00 0.00 99 1018.8
20260507051531 47 295 0.0 0.0 0.00 0.00 0.00 99 1018.5
20260507050037 47 294 0.0 0.9 0.00 0.00 0.00 99 1018.4
20260507044530 47 294 0.0 0.0 0.00 0.00 0.00 99 1018.4
20260507043029 47 294 0.0 0.0 0.00 0.00 0.00 99 1018.4
20260507041543 47 294 0.0 0.0 0.00 0.00 0.00 99 1018.4
20260507040026 47 293 0.0 0.9 0.00 0.00 0.00 99 1018.5
20260507034526 48 293 0.0 0.9 0.00 0.00 0.00 99 1018.3
20260507033022 48 294 0.0 0.9 0.00 0.00 0.00 99 1018.5
20260507031520 49 294 0.9 1.7 0.00 0.00 0.00 98 1018.5
20260507030017 50 293 0.0 0.0 0.00 0.00 0.00 96 1018.6
20260507024516 50 295 0.0 0.9 0.00 0.00 0.00 97 1018.5
20260507023015 50 294 0.0 0.0 0.00 0.00 0.00 95 1018.4
20260507021514 50 293 0.0 0.0 0.00 0.00 0.00 96 1018.4
20260507020014 50 294 0.0 0.0 0.00 0.00 0.00 97 1018.5
20260507014523 50 293 0.0 0.0 0.00 0.01 0.00 97 1018.8
20260507013030 50 293 0.0 0.0 0.00 0.01 0.00 97 1018.7
20260507011523 50 293 0.0 0.0 0.00 0.01 0.00 96 1018.6
20260507010009 50 294 0.0 0.0 0.00 0.01 0.00 96 1018.7
20260507004507 50 293 0.0 0.0 0.00 0.01 0.00 97 1018.9
20260507003005 50 293 0.0 0.0 0.00 0.01 0.00 96 1018.9
20260507001504 50 295 0.0 0.0 0.00 0.01 0.00 96 1019.0
20260507000017 51 293 0.0 0.0 0.00 0.01 0.00 96 1019.0
20260506234503 50 294 0.0 0.0 0.00 0.01 0.00 94 1019.1
20260506233002 51 294 0.0 0.0 0.00 0.01 0.00 94 1019.0
20260506231559 52 294 0.0 0.9 0.00 0.01 0.00 91 1019.1
20260506230059 52 293 0.0 0.0 0.00 0.01 0.00 93 1019.1
20260506224557 53 294 0.0 1.7 0.00 0.01 0.00 93 1019.0
20260506223118 51 152 0.0 0.0 0.00 0.01 0.00 91 1019.0
20260506221557 53 152 0.0 0.0 0.00 0.01 0.00 92 1019.0
20260506220051 52 153 0.0 0.0 0.00 0.01 0.00 91 1018.9
20260506214553 53 152 0.0 0.0 0.00 0.01 0.01 89 1018.8
20260506213049 54 153 0.0 0.0 0.00 0.01 0.01 89 1018.8
20260506211548 54 153 0.0 0.9 0.00 0.01 0.01 90 1018.9
20260506210048 53 152 0.0 0.0 0.00 0.01 0.01 89 1018.8
20260506204546 53 152 0.0 0.0 0.00 0.01 0.01 87 1018.6
20260506203046 55 152 0.0 0.0 0.00 0.01 0.01 85 1018.3